Wind_Speed
12 12 11 10 10 10 9 10 12 12 14 14 16 17 20 22 24 27 29 30 30 29 30 32 33 33 32 32 30 30 29 27 24 23 23 22 24 23 20 19 19 20 19
10 11 13 14 14 14 15 15 15 16 16 16 16 18 19 20 21 22 25 26 29 32 33 34 35 35 37 36 34 32 31 29 26 25 25 26 26 25 24 22 21 21 19
11 14 14 16 16 16 17 18 19 19 19 20 20 20 20 21 22 24 26 27 28 29 30 33 37 39 39 39 38 37 35 33 29 28 27 28 28 27 25 26 24 22 22
11 14 17 18 18 18 19 20 21 22 23 25 25 26 27 27 28 28 29 30 31 31 31 32 33 37 42 41 41 40 38 36 35 32 30 30 29 30 29 27 27 25 23
15 17 18 20 20 21 22 24 25 28 31 32 33 33 34 35 36 36 34 34 33 32 33 33 34 35 39 43 44 43 42 40 37 38 36 34 30 30 30 29 29 27 25
17 19 21 22 23 23 27 30 31 32 34 33 35 35 38 38 38 39 39 42 40 36 35 35 35 36 38 41 45 45 44 44 40 39 39 37 34 31 31 30 31 29 28
23 24 23 24 26 27 28 30 32 33 35 36 35 38 39 39 39 41 40 40 42 41 42 41 39 39 39 42 43 45 47 46 44 40 39 39 38 33 32 33 32 30 29
25 25 25 27 29 30 31 32 33 34 35 36 37 39 41 40 41 42 44 43 42 43 44 46 47 45 45 44 45 45 44 48 47 42 39 39 38 36 34 36 34 31 31
24 25 25 27 30 31 33 33 34 35 36 38 39 41 42 43 43 46 46 47 45 45 43 43 48 51 49 50 50 49 49 48 49 47 41 39 39 38 37 37 37 34 34
25 26 28 28 30 31 32 34 35 37 39 40 42 43 45 46 49 52 51 52 52 51 52 49 45 49 52 52 55 55 53 52 51 49 46 41 41 41 41 42 41 37 37
29 29 30 30 32 34 36 36 37 40 41 43 45 46 48 51 53 55 57 58 59 58 56 52 52 51 52 56 59 59 59 56 53 52 51 47 42 45 44 46 46 41 39
29 31 33 34 36 37 38 37 40 41 41 43 46 49 53 56 58 60 62 63 64 63 63 61 59 58 56 58 61 64 63 61 59 53 50 50 48 46 49 50 50 49 47
32 34 35 37 38 38 39 40 42 42 44 46 48 52 57 61 64 67 69 69 70 71 70 68 66 60 56 59 66 67 69 65 64 60 56 51 48 51 51 54 54 52 50
35 36 38 39 39 39 40 42 43 44 46 48 51 57 60 64 67 69 71 74 75 76 76 75 69 63 59 62 68 71 71 69 65 64 59 54 52 51 52 57 56 54 51
37 38 39 39 39 41 43 44 45 46 49 50 57 62 64 68 72 74 77 80 81 82 81 78 71 65 61 62 68 70 71 71 69 64 60 58 54 53 46 56 58 60 56
38 39 39 39 41 43 45 46 47 49 51 56 60 64 68 72 75 78 81 82 82 84 85 79 70 65 65 68 67 69 71 71 69 68 63 61 55 54 55 58 59 56 58
40 39 39 40 43 45 48 49 50 51 56 61 66 70 74 77 81 83 85 85 84 86 85 78 69 67 70 68 60 66 71 70 68 71 68 63 51 55 58 52 54 57 59
39 39 41 43 46 49 50 51 53 55 58 64 69 73 77 81 83 86 89 89 90 90 84 74 72 72 66 57 56 66 69 66 65 70 73 74 73 33 53 56 63 58 58
38 39 42 45 49 52 53 53 54 59 65 70 75 80 83 84 86 88 91 92 93 86 76 72 71 64 56 55 56 64 62 60 61 66 74 75 77 62 50 47 49 59 64
38 41 45 49 53 54 53 54 60 66 71 75 81 85 87 88 88 91 93 95 90 80 73 69 63 54 53 53 55 57 51 55 56 63 70 79 77 72 61 46 46 58 57
41 45 50 53 55 55 55 58 63 68 73 79 84 88 89 88 90 92 94 85 77 73 66 58 54 52 52 53 55 54 50 54 60 60 68 72 71 72 71 54 50 43 53
44 49 54 56 57 57 59 63 68 73 77 83 87 90 92 90 93 96 84 76 72 61 53 52 52 50 50 52 57 58 50 51 56 62 63 72 67 70 68 73 57 47 38
47 53 57 58 58 59 63 67 73 78 83 87 89 91 89 92 91 80 75 71 59 52 49 48 48 48 48 51 55 59 55 50 52 59 64 65 65 64 63 63 70 55 40
51 55 58 58 60 64 66 72 77 83 88 91 92 92 91 93 80 72 70 62 53 48 45 44 45 45 45 48 53 57 52 51 49 51 57 65 65 60 59 56 55 48 50
54 57 60 62 64 67 71 75 81 87 90 92 93 93 95 81 70 67 60 54 47 42 40 40 41 42 41 45 50 56 51 46 49 49 50 60 64 60 57 53 56 54 52
56 59 62 66 69 72 75 80 86 90 93 94 93 92 81 68 64 60 53 48 42 38 37 36 37 37 37 41 47 53 57 50 49 49 46 50 59 59 55 55 49 53 58
Wind_Direction
325 332 342 347 343 339 333 331 325 323 322 316 313 311 306 304 302 298 294 290 287 285 286 285 284 282 278 276 274 276 278 278 274 272 270 269 265 260 260 265 269 263 254
336 326 332 332 329 328 328 328 325 323 317 313 313 312 308 307 304 299 296 293 291 288 283 281 281 280 281 280 278 276 275 272 273 266 267 270 267 263 257 258 265 261 258
324 329 337 327 327 327 326 329 328 328 328 324 322 317 308 304 305 297 299 297 294 289 287 285 281 278 277 277 278 276 274 273 268 269 267 267 266 263 260 253 255 255 257
333 331 332 327 324 324 321 322 325 329 329 330 329 324 326 323 322 316 311 306 299 292 289 288 282 281 279 276 273 273 272 269 269 266 265 266 266 263 261 254 251 251 253
331 326 321 321 320 318 319 321 327 333 333 333 330 329 328 325 321 319 314 310 306 299 288 287 282 281 278 277 275 272 270 268 265 264 264 265 267 262 257 255 247 250 249
317 311 309 308 311 319 323 323 325 327 325 325 324 324 322 321 320 319 317 314 309 300 287 285 281 278 276 277 276 271 269 268 266 262 261 261 264 263 253 248 246 247 248
309 308 308 317 324 325 321 319 319 319 319 321 320 320 318 317 318 319 318 314 309 306 300 294 283 278 271 272 271 271 270 265 264 261 258 256 259 262 252 247 242 244 245
312 313 317 321 320 317 317 317 317 317 317 317 315 316 316 316 317 317 315 312 309 306 303 298 290 281 270 269 267 269 268 269 264 260 257 255 252 256 251 245 242 239 240
315 313 311 312 312 314 317 318 316 314 315 314 312 312 312 313 313 312 312 311 309 306 301 299 294 286 276 267 263 261 262 263 263 260 255 253 250 249 250 243 242 237 233
309 310 308 309 309 314 315 314 315 315 313 313 310 309 310 311 311 312 311 311 310 309 305 303 293 286 278 268 264 261 260 258 258 257 254 248 247 245 246 243 240 235 231
309 310 311 310 311 314 314 315 314 313 312 311 311 311 311 311 311 312 311 309 309 309 307 303 299 294 283 276 263 260 259 255 254 253 251 248 245 242 242 242 238 235 238
315 316 313 313 312 313 313 313 312 310 310 309 311 314 314 313 311 309 308 309 309 307 303 301 298 294 289 276 266 259 256 254 252 252 247 246 243 247 241 240 239 234 231
316 315 314 314 313 312 311 310 309 309 311 314 315 314 312 312 312 311 310 308 306 304 302 301 297 290 282 278 268 258 256 253 250 248 247 246 247 243 247 242 237 237 234
311 311 311 310 309 309 309 309 311 313 314 314 315 314 313 312 311 310 308 306 305 303 301 299 296 291 282 269 265 260 254 252 249 247 247 243 244 241 248 241 240 235 235
310 308 308 308 309 310 311 312 314 315 314 312 313 313 312 311 309 307 306 304 303 303 300 299 296 290 276 267 266 261 253 252 246 245 243 238 232 246 242 237 239 237 235
310 308 308 309 310 312 314 314 314 313 313 314 314 313 311 310 308 307 306 305 304 302 302 298 293 283 271 265 262 259 251 249 245 242 241 236 235 227 238 238 234 234 236
310 311 311 312 313 314 313 312 313 314 314 314 314 314 311 308 307 307 305 304 303 303 301 298 286 275 270 270 263 255 249 247 244 239 238 233 236 229 234 240 234 232 237
312 313 313 314 314 312 312 312 313 313 313 312 312 310 309 310 309 308 307 304 303 302 301 294 281 277 276 270 260 253 250 248 242 237 235 234 231 229 221 237 232 231 229
309 312 314 314 313 313 312 311 311 312 312 312 314 315 314 311 309 307 305 304 302 302 297 285 281 280 273 265 258 252 250 247 242 237 234 236 236 229 220 224 225 228 232
311 313 312 311 311 311 310 311 312 313 314 314 315 314 313 312 311 309 307 303 302 299 289 289 286 277 269 260 255 251 250 246 241 238 236 238 236 236 231 233 225 225 226
310 310 311 311 311 310 309 311 312 314 314 314 313 312 312 310 308 308 306 304 296 294 294 291 284 275 266 258 248 248 245 240 238 238 235 238 238 235 239 228 218 218 229
308 311 314 313 311 309 309 310 313 315 316 316 314 313 313 311 311 310 307 298 298 299 292 286 281 273 264 255 246 243 240 242 237 233 234 234 238 238 238 242 236 219 209
308 311 315 314 312 309 309 312 316 318 317 316 314 313 313 313 313 309 301 302 303 296 289 283 279 275 264 254 246 241 239 238 239 238 232 234 237 237 237 238 242 236 227
307 311 315 314 313 312 313 315 318 318 318 316 315 315 315 315 312 303 303 306 300 294 287 283 282 278 268 255 246 240 239 237 237 238 235 232 233 234 235 235 238 241 244
307 312 315 315 314 315 315 316 318 317 317 317 319 318 316 316 308 308 309 305 298 291 287 286 288 285 274 258 245 237 235 235 235 235 238 234 232 230 231 231 228 242 234
309 313 315 316 316 316 316 318 318 317 318 320 319 317 319 314 310 310 308 302 296 292 288 290 292 288 279 263 248 238 234 232 232 231 232 235 233 225 227 225 221 222 223
Height
5842 5842 5842 5841 5840 5840 5840 5839 5838 5837 5836 5835 5835 5833 5832 5831 5831 5830 5830 5829 5829 5828 5827 5827 5826 5826 5826 5825 5824 5823 5823 5823 5824 5823 5824 5824 5823 5823 5823 5824 5824 5824 5824
5841 5841 5840 5840 5838 5837 5836 5835 5835 5834 5833 5832 5832 5831 5829 5828 5828 5826 5825 5824 5824 5823 5822 5821 5821 5821 5820 5821 5820 5819 5819 5818 5820 5820 5820 5820 5820 5819 5820 5820 5820 5820 5821
5841 5841 5838 5838 5836 5835 5834 5832 5831 5830 5829 5828 5827 5826 5825 5824 5823 5822 5821 5820 5819 5818 5817 5816 5815 5814 5815 5814 5815 5815 5814 5814 5813 5815 5814 5815 5816 5816 5816 5816 5816 5816 5817
5839 5838 5836 5835 5834 5832 5831 5830 5828 5826 5825 5823 5822 5821 5819 5819 5818 5816 5815 5814 5813 5812 5811 5810 5809 5808 5807 5807 5808 5808 5809 5810 5809 5808 5809 5810 5811 5812 5812 5813 5812 5813 5813
5838 5836 5835 5833 5832 5830 5829 5827 5824 5821 5819 5817 5816 5815 5813 5812 5811 5809 5807 5806 5805 5805 5805 5804 5803 5802 5801 5799 5799 5800 5801 5802 5804 5804 5804 5804 5805 5806 5807 5808 5808 5808 5808
5837 5835 5834 5832 5830 5827 5825 5822 5819 5817 5816 5814 5812 5810 5809 5807 5805 5803 5802 5799 5797 5796 5796 5795 5796 5796 5794 5794 5792 5791 5792 5794 5796 5798 5798 5798 5799 5800 5801 5802 5802 5803 5803
5835 5833 5832 5829 5825 5822 5820 5818 5816 5814 5812 5810 5808 5806 5804 5802 5799 5797 5795 5793 5791 5789 5787 5786 5786 5786 5786 5786 5785 5785 5785 5785 5787 5789 5790 5791 5793 5793 5795 5796 5797 5797 5797
5832 5829 5826 5823 5820 5819 5816 5814 5812 5810 5808 5805 5803 5800 5798 5795 5793 5790 5789 5787 5785 5782 5779 5777 5776 5775 5776 5777 5776 5777 5776 5777 5778 5780 5782 5783 5785 5787 5788 5790 5791 5791 5792
5827 5825 5822 5820 5818 5815 5813 5810 5807 5804 5802 5799 5796 5793 5791 5788 5786 5785 5781 5778 5775 5773 5771 5770 5768 5766 5766 5766 5766 5766 5767 5767 5768 5771 5774 5775 5776 5779 5781 5783 5784 5785 5786
5823 5820 5819 5816 5814 5810 5807 5804 5801 5798 5796 5793 5790 5787 5784 5780 5777 5774 5771 5768 5766 5763 5761 5759 5757 5756 5753 5754 5754 5753 5755 5756 5757 5760 5764 5765 5766 5771 5772 5775 5776 5778 5779
5819 5817 5814 5810 5807 5804 5802 5798 5796 5793 5789 5785 5782 5778 5774 5770 5767 5763 5760 5757 5754 5751 5748 5747 5745 5745 5746 5743 5741 5741 5742 5744 5745 5748 5752 5754 5756 5759 5763 5766 5767 5771 5772
5814 5811 5808 5805 5802 5798 5796 5792 5789 5785 5781 5778 5774 5769 5765 5761 5756 5753 5749 5744 5740 5738 5736 5734 5731 5730 5729 5729 5727 5728 5728 5730 5732 5735 5739 5742 5744 5747 5751 5755 5758 5761 5764
5809 5806 5802 5799 5796 5792 5788 5784 5781 5777 5773 5769 5764 5759 5755 5750 5745 5740 5736 5732 5728 5725 5722 5719 5717 5715 5713 5712 5711 5712 5714 5715 5717 5721 5725 5729 5733 5737 5740 5743 5747 5751 5754
5804 5801 5797 5793 5789 5786 5781 5777 5773 5768 5763 5759 5754 5749 5744 5739 5733 5727 5722 5718 5713 5708 5705 5701 5698 5696 5694 5693 5691 5692 5696 5700 5702 5705 5710 5715 5721 5725 5728 5732 5734 5738 5743
5799 5795 5791 5786 5782 5778 5774 5769 5764 5759 5754 5748 5744 5738 5733 5727 5721 5715 5709 5704 5697 5692 5686 5681 5678 5676 5674 5672 5671 5672 5676 5682 5686 5689 5695 5701 5706 5712 5717 5721 5723 5726 5730
5793 5788 5784 5780 5775 5771 5766 5760 5755 5749 5744 5739 5733 5727 5721 5714 5708 5700 5693 5686 5679 5672 5664 5659 5655 5652 5650 5648 5648 5651 5655 5661 5668 5674 5680 5684 5691 5698 5706 5709 5711 5714 5718
5785 5781 5777 5772 5767 5762 5756 5751 5746 5740 5735 5728 5721 5713 5706 5699 5691 5683 5675 5666 5657 5649 5641 5635 5631 5627 5625 5624 5627 5630 5634 5641 5649 5656 5663 5669 5674 5682 5690 5691 5698 5703 5706
5777 5773 5769 5764 5759 5754 5748 5742 5736 5730 5723 5716 5708 5702 5693 5684 5675 5665 5654 5643 5634 5625 5618 5613 5606 5602 5602 5604 5607 5610 5615 5621 5630 5638 5646 5652 5651 5655 5668 5669 5681 5687 5693
5770 5766 5761 5756 5750 5744 5738 5732 5726 5719 5711 5703 5694 5683 5675 5665 5654 5644 5633 5622 5611 5602 5595 5589 5586 5582 5583 5585 5589 5592 5597 5604 5611 5620 5627 5631 5634 5642 5649 5656 5660 5668 5676
5763 5758 5753 5747 5742 5735 5729 5722 5715 5707 5698 5687 5676 5665 5654 5643 5631 5621 5611 5600 5589 5581 5573 5568 5565 5564 5564 5566 5571 5575 5582 5588 5594 5602 5609 5613 5621 5629 5634 5639 5649 5653 5663
5756 5750 5745 5739 5732 5725 5719 5714 5707 5699 5688 5675 5663 5651 5639 5628 5617 5606 5593 5578 5565 5559 5554 5550 5547 5545 5545 5547 5553 5560 5565 5570 5576 5585 5592 5597 5606 5614 5619 5626 5633 5639 5650
5748 5743 5737 5730 5722 5716 5710 5703 5694 5685 5675 5663 5650 5637 5622 5609 5594 5579 5565 5555 5546 5541 5536 5532 5529 5528 5529 5530 5535 5543 5552 5556 5562 5568 5575 5583 5590 5599 5610 5614 5620 5628 5639
5740 5734 5728 5721 5714 5707 5700 5691 5682 5671 5660 5647 5635 5622 5605 5588 5572 5555 5543 5534 5529 5523 5520 5516 5513 5511 5513 5514 5518 5526 5534 5542 5548 5551 5560 5567 5576 5586 5597 5607 5610 5617 5627
5732 5726 5719 5712 5704 5695 5687 5678 5667 5656 5645 5632 5618 5603 5586 5566 5551 5537 5527 5519 5513 5508 5505 5502 5499 5497 5497 5500 5503 5510 5519 5527 5533 5540 5546 5553 5561 5572 5583 5595 5602 5605 5617
5723 5716 5708 5700 5692 5683 5674 5664 5653 5641 5627 5612 5597 5582 5565 5547 5532 5521 5512 5505 5500 5496 5493 5490 5486 5483 5483 5484 5489 5495 5503 5511 5520 5526 5533 5539 5550 5561 5571 5583 5591 5596 5609
5713 5706 5697 5688 5679 5670 5660 5649 5637 5624 5609 5595 5578 5562 5545 5531 5519 5508 5500 5493 5488 5485 5482 5479 5476 5473 5471 5471 5475 5481 5489 5498 5507 5513 5521 5527 5537 5546 5558 5568 5578 5587 5598